User: anonymous   Login
Location: Carella
(45.8167°N, 9.2667°E)
Time: 11:51:51
(UTC+00:00)
Language:

Cosmos 1953 - Orbit

View from above orbital plane
View from above orbital plane
View from above satellite
View from above satellite

Ground track
Ground track

The orbit data is extracted from the following two-line orbital elements,

1 19210U 88050A   20191.83850051 +.00000308 +00000-0 +19075-4 0  9994
2 19210 082.5169 028.1012 0014048 046.3210 313.9178 15.05994997725030
Epoch (UTC): 09 July 2020 20:07:26
Eccentricity: 0.0014048
inclination: 82.5169°
perigee height: 539 km
apogee height: 558 km
right ascension of ascending node: 28.1012°
argument of perigee: 46.3210°
revolutions per day: 15.05994997
mean anomaly at epoch: 313.9178°
orbit number at epoch: 72503

The dashed part of the orbit path shows where the satellite is in the earth's shadow,  

DLR